Change the Weather History Date:

Monday, November 4, 2013

  Actual Average Record
Temperature  
Mean Temperature 74 °F -  
Max Temperature 88 °F 80 °F 99 °F (2012)
Min Temperature 59 °F 53 °F 55 °F (2005)
Cooling Degree Days 8    
Growing Degree Days 24 (Base 50)    
Moisture  
Dew Point 51 °F    
Average Humidity 46    
Maximum Humidity 67    
Minimum Humidity 22    
Precipitation  
Precipitation 0.00 in 0.00 in - ()
Sea Level Pressure  
Sea Level Pressure 29.96 in    
Wind  
Wind Speed 1 mph ()    
Max Wind Speed 4 mph    
Max Gust Speed -    
Visibility 4.3 miles    
Events      
Averages and records for this station are not official NWS values.
T = Trace of Precipitation, MM = Missing Value Source: Averaged Metar Reports

Daily Weather History Graph

Daily Weather History Graph

Search for Another Location

Airport or City:

Trip Planner

Search our weather history database for the weather conditions in past years. The results will help you decide how hot, cold, wet, or windy it might be!

Date:

Astronomy

Nov. 04, 2013 Rise Set
Actual Time 5:59 AM EET 5:05 PM EET
Civil Twilight 5:35 AM EET 5:29 PM EET
Nautical Twilight 5:08 AM EET 5:56 PM EET
Astronomical Twilight 4:41 AM EET 6:24 PM EET
Moon 6:42 AM EET (11/4) 5:58 PM EET (11/4)
Length of Visible Light 11h 54m
Length of Day
11h 06m
New Moon, 1% of the Moon is Illuminated
Nov 4
New Moon
Nov 10
First Quarter
Nov 17
Full
Nov 25
Last Quarter
Dec 3
New

Hourly Weather History & Observations

Time (EET) Temp. Heat Index Dew Point Humidity Pressure Visibility Wind Dir Wind Speed Gust Speed Precip Events Conditions
12:00 AM 69.8 °F - 50.0 °F 49% 29.95 in 3.7 mi SE 3.5 mph - N/A   Unknown
1:00 AM 68.0 °F - 51.8 °F 56% 29.95 in 3.7 mi Calm Calm - N/A   Unknown
2:00 AM 64.4 °F - 50.0 °F 59% 29.95 in - Calm Calm - N/A   Clear
3:00 AM 62.6 °F - 48.2 °F 59% 29.95 in - Calm Calm - N/A   Clear
4:00 AM 62.6 °F - 48.2 °F 59% 29.95 in - Calm Calm - N/A   Clear
5:00 AM 60.8 °F - 46.4 °F 59% 29.95 in - Calm Calm - N/A   Clear
6:00 AM 59.0 °F - 48.2 °F 67% 29.98 in - Calm Calm - N/A   Clear
7:00 AM 60.8 °F - 48.2 °F 63% 29.98 in - Calm Calm - N/A   Clear
8:00 AM 70 °F - 50 °F 37% 30.01 in 6 mi Calm Calm - -  
8:00 AM 69.8 °F - 50.0 °F 49% 30.01 in - Calm Calm - N/A   Clear
9:00 AM 75.2 °F - 53.6 °F 47% 30.01 in - Calm Calm - N/A   Clear
10:00 AM 78.8 °F - 53.6 °F 42% 30.01 in - Calm Calm - N/A   Clear
11:00 AM 80.6 °F 80.8 °F 57.2 °F 45% 29.98 in - North 2.3 mph - N/A   Clear
12:00 PM 84.2 °F 83.5 °F 57.2 °F 40% 29.95 in - Calm Calm - N/A   Clear
1:00 PM 86.0 °F 84.5 °F 55.4 °F 35% 29.95 in - Calm Calm - N/A   Clear
2:00 PM 88 °F - 54 °F 22% 29.91 in 6 mi Calm Calm - -  
2:00 PM 86.0 °F 84.5 °F 55.4 °F 35% 29.95 in - Calm Calm - N/A   Clear
3:00 PM 87.8 °F 86.1 °F 55.4 °F 33% 29.92 in - Calm Calm - N/A   Clear
7:00 PM 77.0 °F - 55.4 °F 47% 29.95 in 3.7 mi Calm Calm - N/A   Unknown
8:00 PM 73 °F - 54 °F 40% 29.94 in 4 mi Calm Calm - -   Clear
8:00 PM 73.4 °F - 53.6 °F 50% 29.95 in 3.7 mi Calm Calm - N/A   Unknown
9:00 PM 73.4 °F - 46.4 °F 38% 29.95 in 3.7 mi SSE 2.3 mph - N/A   Unknown
10:00 PM 71.6 °F - 44.6 °F 38% 29.95 in - SSE 3.5 mph - N/A   Clear
11:00 PM 69.8 °F - 46.4 °F 43% 29.98 in - Calm Calm - N/A   Clear